Weather in Panchkula

India     30°42′16″N   76°51′50″E
temp.,
°C
wind,
m/s
gust,
m/s
humid.,
%
clouds,
%
prec.,
mm/h
press.,
hPa
HPBL,
m
8 august, mon
mon823:30+26nne228266 0.1 100024
02:30+26ene1182100 0.0 100011
05:30+25ese228465 0.0 100124
08:30+28se22716 0.0 1002362
11:30+33s115558 0.0 10011026
14:30+34s2148100 0.0 9991457
17:30+32sse2263100 0.0 99866
20:30+29ese2266100 0.1 99817
9 august, tue
tue923:30+28e227499 0.3 99919
02:30+28ene227676 0.1 99922
05:30+27ne227696 0.1 100014
08:30+31nne116374 0.0 1001216
11:30+35w114828 0.0 10001329
14:30+36nw4448100 0.0 9971743
17:30+35wnw46570 0.0 996308
20:30+30nnw37735 0.0 997183
10 august, wed
wed1023:30+29n127499 0.0 99822
02:30+29ne227148 0.0 99720
05:30+29e1170100 0.0 99711
08:30+31sse3368100 0.0 997343
11:30+34sse225779 0.0 9971247
14:30+36wnw324725 0.0 9951970
17:30+36wnw125641 0.0 994684
20:30+30ne3378100 2.6 99640
11 august, thu
thu1123:30+26se51090100 8.0 998258
02:30+26se4990100 0.4 997252
05:30+26se71490100 1.4 999578
08:30+24se91691100 2.1 1001927
11:30+23se71695100 25.6 1003866
14:30+23se91693100 15.4 1003762
17:30+24se41187100 17.8 1002513
20:30+24nne1185100 0.0 100214
12 august, fri
fri1223:30+24nne2385100 0.0 100260
02:30+25n2278100 0.0 100025
05:30+25n2280100 0.2 100138
08:30+29ene1263100 0.0 1001135
11:30+33wnw22560 0.0 10011005
14:30+34wnw32540 0.0 9991490
17:30+32w34660 0.0 998242
20:30+28nnw33800 0.0 100061